Theta_e
348 349 348 349 344 340 343 344 336 329 330 339 343 347 351 354 355 358 353 349 348 347 346 348 349 349 348 347 346 345 342 340 340 336 334 332 331 331
348 347 348 350 346 347 344 344 344 335 333 339 343 347 352 351 347 348 341 350 347 346 344 344 346 347 346 345 343 341 339 339 336 334 333 332 331 330
347 347 348 348 349 347 347 346 343 340 332 339 345 350 346 349 349 350 346 350 349 344 344 343 343 344 344 342 340 338 337 336 334 333 332 331 330 331
346 347 346 352 346 347 348 346 344 342 342 337 342 344 344 347 349 346 351 356 348 345 343 342 341 340 340 338 336 334 333 332 331 330 330 330 331 329
348 347 346 348 347 347 345 346 346 346 343 342 340 344 344 345 348 350 351 348 355 347 341 340 339 339 337 334 331 328 327 327 326 326 326 327 328 328
349 349 350 349 347 346 348 345 344 343 342 341 340 340 340 343 344 342 345 347 343 350 346 342 340 339 336 331 329 327 323 321 320 321 322 323 324 325
351 351 351 351 350 349 348 347 345 342 340 339 339 339 339 338 339 342 340 342 342 343 339 339 336 336 335 331 332 330 324 321 319 319 318 318 319 321
346 347 349 346 348 343 342 342 346 344 338 337 338 337 338 338 341 340 337 334 333 344 337 337 337 333 330 328 329 326 322 321 319 318 316 316 317 318
345 347 348 351 346 346 342 337 337 337 339 340 337 338 337 340 341 337 338 337 335 341 337 334 337 331 331 330 327 323 321 319 318 316 315 314 314 315
346 347 344 345 342 341 343 342 344 345 344 342 340 343 343 346 344 342 339 338 338 341 336 330 330 323 324 325 325 322 319 317 315 314 313 312 311 311
343 338 341 337 327 327 337 338 338 340 342 335 334 334 333 333 337 341 340 338 336 338 341 330 323 319 320 318 319 319 316 314 313 312 311 310 308 307
340 330 328 330 323 324 335 335 334 335 332 334 337 338 332 336 334 339 342 336 336 334 341 326 319 317 312 316 315 313 311 311 309 309 310 309 307 305
335 334 325 318 315 315 319 329 328 323 325 328 332 335 339 343 343 340 342 341 338 336 338 326 321 317 313 309 311 308 308 307 307 307 308 307 306 304
327 330 320 314 312 315 318 316 317 322 327 327 327 329 326 327 330 331 331 335 334 336 334 327 319 317 312 309 307 308 308 308 308 306 306 307 306 306
326 320 315 312 312 317 318 319 321 321 320 319 318 318 319 321 323 323 325 325 326 327 327 327 322 317 316 312 307 307 306 308 308 309 308 307 307 305
319 320 319 318 320 322 322 321 319 319 316 316 316 316 319 319 320 320 322 323 324 323 325 323 322 321 317 314 312 309 312 310 311 310 312 311 310 310
326 324 324 323 322 321 321 322 319 320 318 317 313 317 318 320 320 323 322 321 321 322 322 324 326 328 323 318 312 312 312 313 314 313 314 312 313 313
323 328 327 327 324 326 324 323 319 319 319 318 315 313 317 318 318 320 323 321 320 321 321 322 322 322 320 319 320 313 313 313 313 314 312 311 312 316
322 327 326 326 327 327 325 321 319 321 321 320 314 317 316 315 314 316 317 318 318 318 318 320 319 316 313 311 315 319 315 315 314 313 314 314 313 316
322 326 327 326 327 327 326 324 319 318 319 321 321 321 318 314 313 314 315 314 315 315 314 316 316 314 312 311 311 314 317 317 315 315 315 316 317 318
323 325 326 328 327 327 327 326 324 323 321 322 322 322 317 315 314 314 315 312 313 313 312 313 316 319 316 314 311 311 314 313 317 315 314 313 312 311
327 326 329 326 325 323 322 326 324 321 322 324 323 323 321 317 316 314 313 312 311 314 313 314 314 312 308 307 307 308 308 310 310 312 315 316 312 307
327 328 327 327 326 325 323 322 320 320 320 320 320 324 324 317 318 321 315 313 312 311 312 311 311 311 308 308 307 306 308 307 305 304 305 311 313 314
Wind_Speed
6 5 5 4 4 0 1 2 2 2 3 4 3 4 3 3 9 9 6 12 15 15 15 13 13 12 12 11 10 10 10 8 8 7 5 4 4 4
4 5 4 4 6 1 1 3 2 2 1 1 3 4 3 6 7 6 4 7 19 19 16 14 13 12 12 11 10 10 10 9 9 8 7 6 5 5
6 4 5 4 3 3 1 1 2 3 4 3 3 6 6 6 6 4 4 7 9 12 14 15 14 13 12 10 10 11 11 10 9 9 8 7 5 6
6 5 6 4 5 4 2 4 2 2 3 4 4 3 4 5 9 6 9 8 7 12 15 15 14 12 11 11 10 11 11 11 11 9 8 7 6 6
7 7 8 6 6 4 4 3 2 2 1 2 3 3 4 3 3 4 6 3 4 6 10 8 11 12 13 12 12 12 12 12 11 10 9 8 9 7
7 7 7 7 8 7 6 6 4 4 3 3 3 3 3 5 2 4 4 1 2 2 6 9 10 10 10 11 12 12 12 11 11 10 9 10 9 8
8 8 8 9 11 10 5 6 5 4 4 4 3 3 3 3 4 2 4 3 1 3 3 2 3 4 4 8 9 13 13 12 11 10 10 9 9 9
8 7 7 8 7 8 11 11 7 8 5 4 3 5 5 4 2 3 3 0 3 2 2 3 4 4 4 4 10 14 14 14 12 12 11 10 10 10
8 8 6 8 8 7 7 7 7 11 11 5 7 8 6 6 4 2 3 3 4 4 3 3 4 3 4 5 12 14 14 14 14 13 11 10 10 9
7 8 6 6 4 4 5 5 6 6 6 6 9 11 9 7 6 6 6 5 3 3 3 4 3 2 2 2 14 15 15 14 13 12 11 10 9 9
3 5 5 5 4 5 3 5 6 6 5 8 10 10 11 12 10 2 6 5 7 5 6 4 3 3 1 2 5 15 15 14 13 13 12 10 6 6
5 6 9 6 3 2 2 2 5 4 5 8 6 5 8 9 12 8 7 8 6 3 7 7 4 5 4 2 4 5 6 12 12 11 11 11 9 3
1 3 3 4 4 2 3 2 3 5 8 6 7 5 6 6 5 6 8 8 8 9 7 6 5 5 3 5 3 4 5 6 4 5 9 11 11 8
2 4 3 4 5 6 4 5 6 6 4 5 5 5 4 4 5 5 7 5 5 8 10 6 6 8 7 5 5 5 5 5 4 3 5 7 9 9
3 5 7 5 6 6 5 6 8 6 5 4 4 3 3 4 4 3 5 7 8 10 4 4 4 11 6 4 5 5 6 4 6 5 5 6 6 5
7 4 3 3 4 5 3 5 4 5 5 3 3 3 4 3 4 4 4 4 7 7 8 11 7 9 4 7 5 7 4 5 7 6 6 6 6 5
5 3 2 2 2 2 3 4 4 5 5 5 4 4 4 3 3 2 3 4 6 3 6 6 5 5 8 6 4 5 6 3 7 7 7 5 5 6
2 2 2 2 2 4 3 3 2 3 3 3 3 3 3 4 3 3 4 2 7 4 3 3 3 5 3 2 3 6 4 3 4 5 3 3 4 6
2 3 3 4 3 3 4 3 3 3 3 2 2 2 3 3 4 4 2 1 1 3 3 4 4 3 1 1 1 8 6 5 6 6 6 6 4 5
3 4 4 4 4 4 4 4 3 3 3 3 2 2 2 1 1 2 2 2 2 2 2 1 3 3 4 4 3 3 4 5 5 6 6 4 4 5
4 4 3 4 4 4 4 4 5 4 4 4 3 3 3 3 3 3 3 3 2 0 1 2 4 6 2 3 3 0 2 6 8 7 5 4 4 3
4 5 4 5 5 5 4 5 5 5 5 5 4 4 4 4 4 3 3 3 3 3 3 3 1 1 2 3 4 3 2 2 4 4 4 8 6 5
5 4 4 4 5 5 5 5 5 5 5 5 4 4 4 4 5 5 5 5 4 4 4 2 1 2 3 4 5 3 3 4 4 4 5 11 9 6
Wind_Direction
240 249 243 261 274 226 91 55 154 340 320 19 95 342 116 174 222 184 192 202 204 202 196 201 197 192 193 201 201 194 177 171 147 140 137 135 130 125
238 245 257 246 264 181 133 100 89 179 303 151 59 158 176 261 236 189 216 192 221 206 193 199 201 196 195 199 195 186 176 166 156 154 150 150 151 145
250 240 272 272 262 267 203 118 159 158 175 279 159 190 204 205 251 264 238 232 211 203 202 196 196 195 192 196 190 182 178 167 162 164 162 160 156 144
250 253 264 274 262 258 226 253 240 225 191 249 201 232 222 199 218 202 223 217 197 205 203 195 195 189 182 190 186 178 174 169 169 166 157 154 145 142
236 229 236 240 256 260 247 245 254 264 276 216 261 203 240 256 260 225 209 148 181 199 182 185 180 186 180 181 181 179 172 168 164 156 155 150 138 138
228 231 234 231 226 235 237 236 238 250 252 248 249 254 232 265 224 227 258 174 156 151 154 164 171 187 187 178 176 175 165 155 148 148 146 145 137 137
232 237 239 232 223 222 224 242 227 237 238 238 245 234 247 267 225 232 215 225 110 158 146 167 153 151 174 173 174 164 154 149 149 149 143 143 144 136
240 243 243 251 258 247 237 245 232 233 248 234 222 230 247 247 242 181 152 320 282 188 140 163 154 170 157 170 166 155 151 151 148 148 155 156 152 149
225 229 239 248 241 254 263 273 267 252 240 217 249 248 243 222 210 233 221 190 212 197 133 166 168 159 171 169 158 153 149 150 152 157 158 156 157 158
233 224 226 250 331 315 308 280 259 258 243 213 223 251 249 245 208 210 214 203 216 187 144 164 137 109 74 107 157 153 146 149 153 154 152 152 149 155
336 49 79 79 8 39 332 289 291 281 262 270 249 241 254 267 249 258 253 236 243 198 181 133 139 112 74 104 141 152 147 146 145 145 144 145 142 185
102 107 97 126 115 93 129 251 278 282 329 316 311 293 244 249 239 216 248 237 237 222 178 145 145 145 158 165 154 144 139 140 140 147 159 162 189 244
102 110 83 106 96 63 25 356 289 318 298 279 285 280 273 268 251 216 221 224 245 242 169 133 158 153 127 144 146 152 150 147 154 175 186 196 197 189
153 112 109 110 78 62 43 359 345 327 318 320 327 331 351 353 347 27 21 351 313 266 175 169 157 167 149 151 156 139 154 142 153 185 192 216 219 208
94 109 133 156 147 88 65 42 27 21 19 28 11 346 338 331 332 8 42 81 55 17 14 358 152 130 107 124 124 140 141 175 193 189 188 197 202 189
115 125 149 162 153 135 95 59 57 45 43 11 355 339 342 354 10 357 52 69 74 69 58 69 88 69 114 96 90 153 129 167 178 203 202 206 202 199
153 143 161 188 194 174 108 65 46 46 40 35 26 21 11 5 7 1 42 45 74 67 90 87 90 56 91 115 109 148 169 160 177 178 182 208 212 206
97 179 177 230 233 165 145 120 114 81 58 61 31 27 16 356 2 6 351 21 122 108 85 72 68 85 81 258 160 158 165 145 159 171 161 189 237 217
165 186 206 205 203 152 168 159 163 155 156 146 120 14 19 4 359 352 9 114 38 104 152 139 130 110 95 107 221 184 165 167 159 176 187 205 219 221
231 214 207 201 203 181 160 155 157 174 169 177 192 197 172 193 318 332 353 27 7 18 35 47 145 152 145 199 174 175 185 144 162 189 193 210 250 307
211 233 195 170 164 154 162 160 165 183 193 178 201 205 198 192 217 211 207 200 199 321 192 237 235 200 154 85 77 75 227 229 178 170 173 180 202 218
210 200 191 177 175 169 169 164 192 194 199 195 196 202 200 203 230 228 226 199 214 215 222 243 256 117 85 146 184 201 226 239 240 261 219 174 165 189
216 207 195 180 176 175 177 178 180 200 205 205 220 215 191 211 214 222 212 206 199 208 207 245 235 211 216 194 183 203 219 216 192 212 247 222 212 216